Starlink 11349

operational
NORAD ID: 61544 Int'l Des: 2024-184 Owner: SPXS Country: US Constellation: starlink
LEOCIRCULAR

Über Starlink 11349

Beschreibung wird geladen...

Live-Position

3D-Globus wird geladen...

Nächste Überflüge

Höhenverlauf

Altitude vs Time

uPlot chart will show altitude changes over time

Zweizeiliger Elementsatz

1 61544U 24184N 25259.60668252 -.00003760 00000-0 -26212-4 0 9992
2 61544 53.1577 14.5742 0001156 78.7726 281.3422 15.69688520 53070
Epoch: 16. Sept. 2025 • Age: 35 hours

Aktueller Status

Höhe 378.3 km
Geschwindigkeit 7.68 km/s
Subsatellitenpunkt -51.26°S, 78.76°W
Startdatum 15. Okt. 2024
Alter 0.9 years
Typ internet

Technische Details

Klassifizierung Payload
Masse 960.00 kg
Trockenmasse 910.00 kg
Gesamtmasse 960.00 kg
Länge 0.30 m
Durchmesser 4.10 m
Spannweite 29.00 m
Form Box + pan
Hersteller SPXS
Bus-Typ Starlink V2MD
Phasenstatus In Orbit
Besitzer/Staat SPXS/US

Große Konstellationen

Loading constellations...